Voltar ao catálogo

CZ-6A DEB

AtivoSSO
NORAD 54429·DEBRIS·🇨🇳 China

Lançado Nov 11, 2022 de Taiyuan Satellite Launch Center

Loading…

Próximas Passagens (próximas 24 horas)

TLE

AtualizadoSource: Space-Track

Época: Sep 14, 2026, 08:16 UTC

1 54429U 22151FD  26257.34470671  .00000222  00000-0  20946-3 0  9999
2 54429  99.0610 225.4907 0165622 239.9558 118.5081 13.85530226193881

Acompanhe CZ-6A DEB em tempo real com AllMySat

Download on the App Store